weather.gov     
National Weather Service

Weather Roundup
NWS Homepage
This page is being discontinued on March 12, 2014.
The same data is available at this site. Please update your bookmarks.
Thank you, and we apologize for the inconvenience.
Please send an email to SR-SRH.Webmaster@noaa.gov with any concerns.


Current Version
Previous Version:    01  02  03  04  05  06  07  08  09  10  11  12  13  14  15  16  17  18  19  20  21  22  23  24  25  26  27  28  29  30  
   31  32  33  34  35  36  37  38  39  40  41  42  43  44  45  46  47  48  49  50  51  52  53  54  55  56  57  58  59  60  
[Printable]
692
ASUS44 KCRP 210710
HRRCRP

SOUTH TEXAS REGIONAL WEATHER ROUNDUP
NATIONAL WEATHER SERVICE CORPUS CHRISTI TX
200 AM CDT MON APR 21 2014


TXZ229>244-210800-
...CORPUS CHRISTI AREA OBSERVATIONS...

CITY           SKY/WX    TMP DP  RH WIND       PRES   REMARKS
CORPUS CHRISTI CLOUDY    71  65  81 SE10      30.04F
NAS CORPUS CHR CLOUDY    71  67  87 SE15      30.04F
ROCKPORT       CLOUDY    70  66  87 SE12G18   30.05F
KINGSVILLE NAS MOCLDY    71  65  81 SE9       30.03F
ALICE          CLOUDY    69  64  84 SE6       30.03F
FALFURRIAS     PTCLDY    69  65  86 E3        30.02F
$$

...VICTORIA AREA OBSERVATIONS...

CITY           SKY/WX    TMP DP  RH WIND       PRES   REMARKS
VICTORIA       MOCLDY    63  62  97 NE5       30.08R FOG
BEEVILLE       CLOUDY    69  67  93 SE6       30.06S
PLEASANTON     CLOUDY    68  62  81 CALM      30.08R
SAN ANTONIO    CLOUDY    69  62  78 S9        30.07S
$$

...LAREDO AREA OBSERVATIONS...

CITY           SKY/WX    TMP DP  RH WIND       PRES   REMARKS
LAREDO         CLOUDY    74  65  73 S12       30.05S
COTULLA        CLOUDY    71  63  75 SE9       30.04S
DEL RIO        CLOUDY    70  64  81 E9        30.03S
MCALLEN        CLOUDY    69  65  86 SE10      30.01F
HEBBRONVILLE   CLOUDY    69  64  83 SE10      30.04S
$$

...OTHER TEXAS OBSERVATIONS...

CITY           SKY/WX    TMP DP  RH WIND       PRES   REMARKS
BROWNSVILLE    CLOUDY    68  67  96 SE6       30.04F
HOUSTON        MOCLDY    66  62  87 S6        30.09F
COL. STATION   PTCLDY    65  59  81 S6        30.08F
AUSTIN         PTCLDY    66  60  81 S13       30.05F
WACO           CLOUDY    68  56  65 S10       30.05S
FORT WORTH     MOCLDY    63  61  93 E7        30.03F
WICHITA FALLS  CLOUDY    62  60  93 SE20      29.94F
LUBBOCK        PTCLDY    55  51  86 W5        30.00S
EL PASO        CLEAR     65  42  43 VRB3      30.09R
$$

...MARINE OBSERVATIONS...

STATION/POSITION TIME  SKY/WX   TEMP    WIND        PRES    VSBY  WAVE   SWELL
                                AIR SEA DIR/SP/G                  HT/PER HT/PER
                 (UTC)          (F)     (DEG/KT/KT) (MB)    (MI)  (FT/S) (FT/S)
PORT ARANSAS     0700            68 71  130/ 14/ 15 1017.5F
BUOY 90 E PORT A NOT AVBL
BUOY 45 SE BAFFI 0700            69 69  130/  8/ 10 1017.6F         3/ 5   2/ 5
BUOY 200 E PT IS NOT AVBL
BUOY 15 E GALVES 0700            68 68  160/  8/  8 1018.9F         1/ 5
$$




U.S. Dept. of Commerce
NOAA National Weather Service
1325 East West Highway
Silver Spring, MD 20910
E-mail: w-nws.webmaster@noaa.gov
Page last modified: May 16, 2007
NATIONAL WEATHER SERVICE: for Safety, for Work, for Fun - FOR LIFE